Time,TemperatureF,DewpointF,PressureIn,WindDirection,WindDirectionDegrees,WindSpeedMPH,WindSpeedGustMPH,Humidity,HourlyPrecipIn,Conditions,Clouds,dailyrainin,SoftwareType,DateUTC
2013-01-21 00:04:00,68.0,65.0,30.06,East,80,7.0,-999.0,89,-99.99,,,-99.99,,2013-01-21 05:04:00,
2013-01-21 00:13:00,68.0,65.0,30.06,East,80,7.0,-999.0,89,-99.99,,,-99.99,,2013-01-21 05:13:00,
2013-01-21 00:22:00,67.0,64.0,30.05,ENE,59,6.0,-999.0,90,-99.99,,,-99.99,,2013-01-21 05:22:00,
2013-01-21 00:34:00,67.0,64.0,30.04,ENE,67,8.0,-999.0,91,-99.99,,,-99.99,,2013-01-21 05:34:00,
2013-01-21 00:42:00,67.0,64.0,30.04,ENE,67,8.0,-999.0,91,-99.99,,,-99.99,,2013-01-21 05:42:00,
2013-01-21 00:52:00,67.0,64.0,30.04,ENE,62,7.0,-999.0,91,-99.99,,,-99.99,,2013-01-21 05:52:00,
2013-01-21 01:03:00,67.0,64.0,30.04,ENE,62,7.0,-999.0,91,-99.99,,,-99.99,,2013-01-21 06:03:00,
2013-01-21 01:13:00,67.0,64.0,30.04,ENE,62,7.0,-999.0,91,-99.99,,,-99.99,,2013-01-21 06:13:00,
2013-01-21 01:23:00,67.0,64.0,30.04,ENE,68,10.0,-999.0,91,-99.99,,,-99.99,,2013-01-21 06:23:00,
2013-01-21 01:33:00,67.0,65.0,30.04,NE,56,8.0,-999.0,92,-99.99,,,-99.99,,2013-01-21 06:33:00,
2013-01-21 01:43:00,67.0,65.0,30.04,NE,56,8.0,-999.0,92,-99.99,,,-99.99,,2013-01-21 06:43:00,
2013-01-21 01:52:00,66.0,64.0,30.04,NE,53,8.0,-999.0,92,-99.99,,,-99.99,,2013-01-21 06:52:00,
2013-01-21 02:03:00,66.0,64.0,30.04,ENE,63,8.0,-999.0,92,-99.99,,,-99.99,,2013-01-21 07:03:00,
2013-01-21 02:13:00,66.0,64.0,30.04,ENE,63,8.0,-999.0,92,-99.99,,,-99.99,,2013-01-21 07:13:00,
2013-01-21 02:23:00,66.0,64.0,30.04,NE,43,7.0,-999.0,92,-99.99,,,-99.99,,2013-01-21 07:23:00,
2013-01-21 02:33:00,66.0,64.0,30.04,NE,40,9.0,-999.0,92,-99.99,,,-99.99,,2013-01-21 07:33:00,
2013-01-21 02:42:00,66.0,64.0,30.04,NE,40,9.0,-999.0,92,-99.99,,,-99.99,,2013-01-21 07:42:00,
2013-01-21 02:52:00,65.0,63.0,30.03,NE,49,6.0,-999.0,92,-99.99,,,-99.99,,2013-01-21 07:52:00,
2013-01-21 03:03:00,65.0,63.0,30.03,NE,49,8.0,-999.0,92,-99.99,,,-99.99,,2013-01-21 08:03:00,
2013-01-21 03:14:00,65.0,63.0,30.03,NE,49,8.0,-999.0,92,-99.99,,,-99.99,,2013-01-21 08:14:00,
2013-01-21 03:23:00,65.0,63.0,30.03,NE,51,7.0,-999.0,92,-99.99,,,-99.99,,2013-01-21 08:23:00,
2013-01-21 03:33:00,65.0,63.0,30.02,NE,53,6.0,-999.0,93,-99.99,,,-99.99,,2013-01-21 08:33:00,
2013-01-21 03:42:00,65.0,63.0,30.02,NE,53,6.0,-999.0,93,-99.99,,,-99.99,,2013-01-21 08:42:00,
2013-01-21 03:50:00,65.0,63.0,30.01,NE,52,5.0,-999.0,93,-99.99,,,-99.99,,2013-01-21 08:50:00,
2013-01-21 03:53:00,65.0,63.0,30.02,ENE,57,8.0,-999.0,93,-99.99,,,-99.99,,2013-01-21 08:53:00,
2013-01-21 04:03:00,65.0,63.0,30.01,NE,43,7.0,-999.0,93,-99.99,,,-99.99,,2013-01-21 09:03:00,
2013-01-21 04:13:00,65.0,63.0,30.01,NE,43,7.0,-999.0,93,-99.99,,,-99.99,,2013-01-21 09:13:00,
2013-01-21 04:23:00,65.0,63.0,30.01,NE,52,5.0,-999.0,93,-99.99,,,-99.99,,2013-01-21 09:23:00,
2013-01-21 04:33:00,65.0,63.0,30.01,NE,52,5.0,-999.0,93,-99.99,,,-99.99,,2013-01-21 09:33:00,
2013-01-21 04:42:00,65.0,63.0,30.01,NE,52,5.0,-999.0,93,-99.99,,,-99.99,,2013-01-21 09:42:00,
2013-01-21 05:03:00,65.0,63.0,30.01,NE,53,6.0,-999.0,94,-99.99,,,-99.99,,2013-01-21 10:03:00,
2013-01-21 05:12:00,65.0,63.0,30.01,NE,53,6.0,-999.0,94,-99.99,,,-99.99,,2013-01-21 10:12:00,
2013-01-21 05:23:00,65.0,63.0,30.01,ENE,67,5.0,-999.0,94,-99.99,,,-99.99,,2013-01-21 10:23:00,
2013-01-21 05:33:00,65.0,63.0,30.01,NE,51,5.0,-999.0,93,-99.99,,,-99.99,,2013-01-21 10:33:00,
2013-01-21 05:43:00,65.0,63.0,30.01,NE,51,5.0,-999.0,93,-99.99,,,-99.99,,2013-01-21 10:43:00,
2013-01-21 05:52:00,64.0,62.0,30.00,NNE,28,5.0,-999.0,94,-99.99,,,-99.99,,2013-01-21 10:52:00,
2013-01-21 06:03:00,64.0,62.0,30.01,NE,45,3.0,-999.0,94,-99.99,,,-99.99,,2013-01-21 11:03:00,
2013-01-21 06:13:00,64.0,62.0,30.01,NE,45,3.0,-999.0,94,-99.99,,,-99.99,,2013-01-21 11:13:00,
2013-01-21 06:23:00,64.0,62.0,30.01,NE,46,5.0,-999.0,94,-99.99,,,-99.99,,2013-01-21 11:23:00,
2013-01-21 06:33:00,64.0,62.0,30.01,ENE,58,4.0,-999.0,94,-99.99,,,-99.99,,2013-01-21 11:33:00,
2013-01-21 06:43:00,64.0,62.0,30.01,ENE,58,4.0,-999.0,94,-99.99,,,-99.99,,2013-01-21 11:43:00,
2013-01-21 06:53:00,64.0,62.0,30.01,East,80,6.0,-999.0,94,-99.99,,,-99.99,,2013-01-21 11:53:00,
2013-01-21 07:03:00,64.0,62.0,30.02,ENE,60,5.0,-999.0,94,-99.99,,,-99.99,,2013-01-21 12:03:00,
2013-01-21 07:12:00,64.0,62.0,30.02,ENE,60,5.0,-999.0,94,-99.99,,,-99.99,,2013-01-21 12:12:00,
2013-01-21 07:22:00,64.0,62.0,30.02,NNW,347,1.0,-999.0,93,-99.99,,,-99.99,,2013-01-21 12:22:00,
2013-01-21 07:33:00,63.0,61.0,30.03,NNW,344,0.0,-999.0,93,-99.99,,,-99.99,,2013-01-21 12:33:00,
2013-01-21 07:42:00,63.0,61.0,30.03,NNW,344,0.0,-999.0,93,-99.99,,,-99.99,,2013-01-21 12:42:00,
2013-01-21 07:52:00,62.0,60.0,30.03,NNW,346,0.0,-999.0,93,-99.99,,,-99.99,,2013-01-21 12:52:00,
2013-01-21 08:03:00,62.0,60.0,30.04,NE,41,2.0,-999.0,94,-99.99,,,-99.99,,2013-01-21 13:03:00,
2013-01-21 08:13:00,62.0,60.0,30.04,NE,41,2.0,-999.0,94,-99.99,,,-99.99,,2013-01-21 13:13:00,
2013-01-21 08:23:00,63.0,61.0,30.04,NNW,332,0.0,-999.0,94,-99.99,,,-99.99,,2013-01-21 13:23:00,
2013-01-21 08:33:00,64.0,62.0,30.05,NNE,32,0.0,-999.0,93,-99.99,,,-99.99,,2013-01-21 13:33:00,
2013-01-21 08:43:00,64.0,62.0,30.05,NNE,32,0.0,-999.0,93,-99.99,,,-99.99,,2013-01-21 13:43:00,
2013-01-21 08:53:00,64.0,61.0,30.06,NNE,31,0.0,-999.0,91,-99.99,,,-99.99,,2013-01-21 13:53:00,
2013-01-21 09:04:00,65.0,62.0,30.06,NNE,31,0.0,-999.0,91,-99.99,,,-99.99,,2013-01-21 14:04:00,
2013-01-21 09:13:00,65.0,62.0,30.06,NNE,31,0.0,-999.0,91,-99.99,,,-99.99,,2013-01-21 14:13:00,
2013-01-21 09:23:00,66.0,63.0,30.07,NNE,33,0.0,-999.0,90,-99.99,,,-99.99,,2013-01-21 14:23:00,
2013-01-21 09:33:00,66.0,63.0,30.06,NNE,33,0.0,-999.0,89,-99.99,,,-99.99,,2013-01-21 14:33:00,
2013-01-21 09:43:00,66.0,63.0,30.06,NNE,33,0.0,-999.0,89,-99.99,,,-99.99,,2013-01-21 14:43:00,
2013-01-21 09:53:00,66.0,62.0,30.07,NNE,33,0.0,-999.0,88,-99.99,,,-99.99,,2013-01-21 14:53:00,
2013-01-21 10:03:00,66.0,63.0,30.08,SSW,208,0.0,-999.0,89,-99.99,,,-99.99,,2013-01-21 15:03:00,
2013-01-21 10:13:00,66.0,63.0,30.08,SSW,208,0.0,-999.0,89,-99.99,,,-99.99,,2013-01-21 15:13:00,
2013-01-21 10:23:00,66.0,63.0,30.08,WSW,242,0.0,-999.0,90,-99.99,,,-99.99,,2013-01-21 15:23:00,
2013-01-21 10:33:00,67.0,64.0,30.08,South,178,0.0,-999.0,89,-99.99,,,-99.99,,2013-01-21 15:33:00,
2013-01-21 10:43:00,67.0,64.0,30.08,South,178,0.0,-999.0,89,-99.99,,,-99.99,,2013-01-21 15:43:00,
2013-01-21 10:53:00,68.0,64.0,30.08,SSW,196,0.0,-999.0,86,-99.99,,,-99.99,,2013-01-21 15:53:00,
2013-01-21 11:04:00,68.0,64.0,30.08,SW,221,0.0,-999.0,87,-99.99,,,-99.99,,2013-01-21 16:04:00,
2013-01-21 11:13:00,68.0,64.0,30.08,SW,221,0.0,-999.0,87,-99.99,,,-99.99,,2013-01-21 16:13:00,
2013-01-21 11:23:00,68.0,64.0,30.08,WSW,249,0.0,-999.0,87,-99.99,,,-99.99,,2013-01-21 16:23:00,
2013-01-21 11:33:00,68.0,64.0,30.08,West,279,2.0,-999.0,88,-99.99,,,-99.99,,2013-01-21 16:33:00,
2013-01-21 11:43:00,68.0,64.0,30.08,West,279,2.0,-999.0,88,-99.99,,,-99.99,,2013-01-21 16:43:00,
2013-01-21 11:53:00,68.0,64.0,30.08,WSW,256,1.0,-999.0,88,-99.99,,,-99.99,,2013-01-21 16:53:00,
2013-01-21 12:03:00,69.0,65.0,30.07,WNW,296,1.0,-999.0,87,-99.99,,,-99.99,,2013-01-21 17:03:00,
2013-01-21 12:13:00,69.0,65.0,30.07,WNW,296,1.0,-999.0,87,-99.99,,,-99.99,,2013-01-21 17:13:00,
2013-01-21 12:23:00,69.0,65.0,30.07,WNW,296,1.0,-999.0,87,-99.99,,,-99.99,,2013-01-21 17:23:00,
2013-01-21 12:33:00,70.0,65.0,30.06,West,278,4.0,-999.0,85,-99.99,,,-99.99,,2013-01-21 17:33:00,
2013-01-21 12:43:00,70.0,65.0,30.06,West,278,4.0,-999.0,85,-99.99,,,-99.99,,2013-01-21 17:43:00,
2013-01-21 12:53:00,71.0,66.0,30.05,West,263,4.0,-999.0,84,-99.99,,,-99.99,,2013-01-21 17:53:00,
2013-01-21 13:03:00,71.0,66.0,30.05,West,263,4.0,-999.0,84,-99.99,,,-99.99,,2013-01-21 18:03:00,
2013-01-21 13:12:00,71.0,66.0,30.05,West,263,4.0,-999.0,84,-99.99,,,-99.99,,2013-01-21 18:12:00,
2013-01-21 13:23:00,73.0,66.0,30.03,SW,234,2.0,-999.0,78,-99.99,,,-99.99,,2013-01-21 18:23:00,
2013-01-21 13:33:00,75.0,67.0,30.02,WNW,286,0.0,-999.0,77,-99.99,,,-99.99,,2013-01-21 18:33:00,
2013-01-21 13:43:00,75.0,67.0,30.02,WNW,286,0.0,-999.0,77,-99.99,,,-99.99,,2013-01-21 18:43:00,
2013-01-21 13:52:00,73.0,66.0,30.01,SE,138,0.0,-999.0,79,-99.99,,,-99.99,,2013-01-21 18:52:00,
2013-01-21 14:03:00,71.0,66.0,30.01,SSE,165,2.0,-999.0,84,-99.99,,,-99.99,,2013-01-21 19:03:00,
2013-01-21 14:13:00,71.0,66.0,30.01,SSE,165,2.0,-999.0,84,-99.99,,,-99.99,,2013-01-21 19:13:00,
2013-01-21 14:22:00,70.0,66.0,30.00,SSE,161,3.0,-999.0,86,-99.99,,,-99.99,,2013-01-21 19:22:00,
2013-01-21 14:33:00,71.0,66.0,30.00,SSW,192,5.0,-999.0,84,-99.99,,,-99.99,,2013-01-21 19:33:00,
2013-01-21 14:43:00,71.0,66.0,30.00,SSW,192,5.0,-999.0,84,-99.99,,,-99.99,,2013-01-21 19:43:00,
2013-01-21 14:53:00,73.0,67.0,30.00,West,264,2.0,-999.0,81,-99.99,,,-99.99,,2013-01-21 19:53:00,
2013-01-21 15:04:00,75.0,67.0,29.99,WNW,297,2.0,-999.0,76,-99.99,,,-99.99,,2013-01-21 20:04:00,
2013-01-21 15:12:00,75.0,67.0,29.99,WNW,297,2.0,-999.0,76,-99.99,,,-99.99,,2013-01-21 20:12:00,
2013-01-21 15:23:00,76.0,67.0,29.99,West,279,3.0,-999.0,73,-99.99,,,-99.99,,2013-01-21 20:23:00,
2013-01-21 15:33:00,74.0,66.0,29.99,NW,310,7.0,-999.0,76,-99.99,,,-99.99,,2013-01-21 20:33:00,
2013-01-21 15:43:00,74.0,66.0,29.99,NW,310,7.0,-999.0,76,-99.99,,,-99.99,,2013-01-21 20:43:00,
2013-01-21 15:53:00,73.0,66.0,29.99,WNW,294,8.0,-999.0,79,-99.99,,,-99.99,,2013-01-21 20:53:00,
2013-01-21 16:04:00,72.0,66.0,29.99,West,262,8.0,-999.0,81,-99.99,,,-99.99,,2013-01-21 21:04:00,
2013-01-21 16:12:00,72.0,66.0,29.99,West,262,8.0,-999.0,81,-99.99,,,-99.99,,2013-01-21 21:12:00,
2013-01-21 16:23:00,72.0,66.0,29.99,WNW,297,7.0,-999.0,81,-99.99,,,-99.99,,2013-01-21 21:23:00,
2013-01-21 16:33:00,71.0,65.0,29.99,WNW,292,7.0,-999.0,82,-99.99,,,-99.99,,2013-01-21 21:33:00,
2013-01-21 16:43:00,71.0,65.0,29.99,WNW,292,7.0,-999.0,82,-99.99,,,-99.99,,2013-01-21 21:43:00,
2013-01-21 16:53:00,71.0,65.0,30.00,WNW,285,9.0,-999.0,82,-99.99,,,-99.99,,2013-01-21 21:53:00,
2013-01-21 17:03:00,70.0,64.0,29.99,WNW,286,8.0,-999.0,82,-99.99,,,-99.99,,2013-01-21 22:03:00,
2013-01-21 17:13:00,70.0,64.0,29.99,WNW,286,8.0,-999.0,82,-99.99,,,-99.99,,2013-01-21 22:13:00,
2013-01-21 17:23:00,69.0,64.0,29.99,NW,305,8.0,-999.0,83,-99.99,,,-99.99,,2013-01-21 22:23:00,
2013-01-21 17:33:00,69.0,64.0,30.00,West,279,8.0,-999.0,83,-99.99,,,-99.99,,2013-01-21 22:33:00,
2013-01-21 17:43:00,69.0,64.0,30.00,West,279,8.0,-999.0,83,-99.99,,,-99.99,,2013-01-21 22:43:00,
2013-01-21 17:52:00,68.0,63.0,30.01,West,279,9.0,-999.0,83,-99.99,,,-99.99,,2013-01-21 22:52:00,
2013-01-21 18:03:00,68.0,63.0,30.01,NW,307,9.0,-999.0,83,-99.99,,,-99.99,,2013-01-21 23:03:00,
2013-01-21 18:13:00,68.0,63.0,30.01,NW,307,9.0,-999.0,83,-99.99,,,-99.99,,2013-01-21 23:13:00,
2013-01-21 18:23:00,68.0,63.0,30.02,WNW,288,9.0,-999.0,85,-99.99,,,-99.99,,2013-01-21 23:23:00,
2013-01-21 18:33:00,67.0,63.0,30.02,WNW,298,8.0,-999.0,86,-99.99,,,-99.99,,2013-01-21 23:33:00,
2013-01-21 18:42:00,67.0,63.0,30.02,WNW,298,8.0,-999.0,86,-99.99,,,-99.99,,2013-01-21 23:42:00,
2013-01-21 18:53:00,67.0,63.0,30.02,WNW,297,6.0,-999.0,86,-99.99,,,-99.99,,2013-01-21 23:53:00,
2013-01-21 19:03:00,67.0,63.0,30.03,NW,317,7.0,-999.0,87,-99.99,,,-99.99,,2013-01-22 00:03:00,
2013-01-21 19:12:00,67.0,63.0,30.03,NW,317,7.0,-999.0,87,-99.99,,,-99.99,,2013-01-22 00:12:00,
2013-01-21 19:23:00,66.0,62.0,30.03,WNW,300,6.0,-999.0,88,-99.99,,,-99.99,,2013-01-22 00:23:00,
2013-01-21 19:33:00,66.0,62.0,30.03,NW,304,6.0,-999.0,88,-99.99,,,-99.99,,2013-01-22 00:33:00,
2013-01-21 19:43:00,66.0,62.0,30.03,NW,304,6.0,-999.0,88,-99.99,,,-99.99,,2013-01-22 00:43:00,
2013-01-21 19:53:00,66.0,63.0,30.03,NW,307,6.0,-999.0,89,-99.99,,,-99.99,,2013-01-22 00:53:00,
2013-01-21 20:02:00,66.0,63.0,30.03,NW,309,5.0,-999.0,90,-99.99,,,-99.99,,2013-01-22 01:02:00,
2013-01-21 20:12:00,66.0,63.0,30.03,NW,309,5.0,-999.0,90,-99.99,,,-99.99,,2013-01-22 01:12:00,
2013-01-21 20:23:00,65.0,62.0,30.03,WNW,298,6.0,-999.0,89,-99.99,,,-99.99,,2013-01-22 01:23:00,
2013-01-21 20:33:00,65.0,62.0,30.03,NW,306,5.0,-999.0,90,-99.99,,,-99.99,,2013-01-22 01:33:00,
2013-01-21 20:43:00,65.0,62.0,30.03,NW,306,5.0,-999.0,90,-99.99,,,-99.99,,2013-01-22 01:43:00,
2013-01-21 20:52:00,65.0,62.0,30.03,NW,307,4.0,-999.0,90,-99.99,,,-99.99,,2013-01-22 01:52:00,
2013-01-21 21:03:00,65.0,62.0,30.03,NW,309,4.0,-999.0,90,-99.99,,,-99.99,,2013-01-22 02:03:00,
2013-01-21 21:12:00,65.0,62.0,30.03,NW,309,4.0,-999.0,90,-99.99,,,-99.99,,2013-01-22 02:12:00,
2013-01-21 21:23:00,64.0,61.0,30.03,WNW,298,3.0,-999.0,90,-99.99,,,-99.99,,2013-01-22 02:23:00,
2013-01-21 21:33:00,64.0,61.0,30.04,NW,304,1.0,-999.0,91,-99.99,,,-99.99,,2013-01-22 02:33:00,
2013-01-21 21:43:00,64.0,61.0,30.04,NW,304,1.0,-999.0,91,-99.99,,,-99.99,,2013-01-22 02:43:00,
2013-01-21 21:53:00,64.0,61.0,30.04,WNW,290,1.0,-999.0,91,-99.99,,,-99.99,,2013-01-22 02:53:00,
2013-01-21 22:03:00,64.0,61.0,30.04,WNW,290,1.0,-999.0,91,-99.99,,,-99.99,,2013-01-22 03:03:00,
2013-01-21 22:12:00,64.0,61.0,30.04,WNW,290,1.0,-999.0,91,-99.99,,,-99.99,,2013-01-22 03:12:00,
2013-01-21 22:22:00,63.0,61.0,30.05,NW,324,2.0,-999.0,92,-99.99,,,-99.99,,2013-01-22 03:22:00,
2013-01-21 22:33:00,63.0,61.0,30.05,NW,313,3.0,-999.0,92,-99.99,,,-99.99,,2013-01-22 03:33:00,
2013-01-21 22:42:00,63.0,61.0,30.05,NW,313,3.0,-999.0,92,-99.99,,,-99.99,,2013-01-22 03:42:00,
2013-01-21 22:52:00,63.0,61.0,30.06,NW,308,2.0,-999.0,92,-99.99,,,-99.99,,2013-01-22 03:52:00,
2013-01-21 23:03:00,63.0,61.0,30.06,WNW,296,2.0,-999.0,92,-99.99,,,-99.99,,2013-01-22 04:03:00,
2013-01-21 23:12:00,63.0,61.0,30.06,WNW,296,2.0,-999.0,92,-99.99,,,-99.99,,2013-01-22 04:12:00,
2013-01-21 23:22:00,62.0,60.0,30.06,NW,310,3.0,-999.0,92,-99.99,,,-99.99,,2013-01-22 04:22:00,
2013-01-21 23:33:00,62.0,60.0,30.06,WNW,291,3.0,-999.0,92,-99.99,,,-99.99,,2013-01-22 04:33:00,
2013-01-21 23:42:00,62.0,60.0,30.06,WNW,291,3.0,-999.0,92,-99.99,,,-99.99,,2013-01-22 04:42:00,
2013-01-21 23:52:00,62.0,60.0,30.06,NW,310,3.0,-999.0,92,-99.99,,,-99.99,,2013-01-22 04:52:00,